FW1856 Weather Reports


time (UTC)temp
F
wind
direction
speed
knots
gust
knots
rain 1hr
in
rain 24hr
in
rain mn
in
humidity
%
barometer
mb
20260504173143 74 320 2.6 7.0 0.00 0.00 0.00 47 1010.2
20260504172122 74 358 3.5 11.3 0.00 0.00 0.00 47 1010.3
20260504171143 73 341 1.7 7.0 0.00 0.00 0.00 47 1010.3
20260504170123 72 329 0.9 4.3 0.00 0.00 0.00 51 1010.2
20260504160122 69 103 1.7 5.2 0.00 0.00 0.00 49 1010.3
20260504151124 65 83 0.9 2.6 0.00 0.00 0.00 55 1010.5
20260504150122 65 104 1.7 4.3 0.00 0.00 0.00 56 1010.4
20260504141122 59 141 0.0 0.0 0.00 0.00 0.00 70 1010.1
20260504140123 58 141 0.0 0.0 0.00 0.00 0.00 74 1010.1
20260504130122 55 287 0.9 2.6 0.00 0.00 0.00 76 1009.7
20260504120122 56 104 0.0 0.0 0.00 0.00 0.00 75 1009.8
20260504110144 57 102 0.0 0.0 0.00 0.00 0.00 72 1009.7
20260504100122 58 102 0.0 0.0 0.00 0.00 0.00 72 1009.6
20260504090122 59 102 0.0 1.7 0.00 0.00 0.00 71 1009.4
20260504081122 61 4 0.0 0.0 0.00 0.00 0.00 66 1009.3
20260504080122 61 8 0.0 0.0 0.00 0.00 0.00 64 1009.2
20260504070124 64 8 0.0 0.0 0.00 0.00 0.00 58 1009.1
20260504060122 64 8 0.0 0.0 0.00 0.00 0.00 58 1008.9
20260504050123 65 4 0.0 0.0 0.00 0.00 0.00 59 1008.9
20260504045122 65 4 0.0 0.0 0.00 0.00 0.00 58 1008.9
20260504044122 65 4 0.0 0.0 0.00 0.00 0.00 56 1008.9
20260504043143 66 4 0.0 0.0 0.00 0.00 0.00 56 1009.1
20260504042122 66 8 0.0 0.0 0.00 0.00 0.00 55 1009.1
20260504041144 67 5 0.0 2.6 0.00 0.00 0.00 53 1009.1
20260504040122 68 5 0.0 2.6 0.00 0.00 0.00 50 1009.1
20260504035144 67 333 0.0 2.6 0.00 0.00 0.00 53 1009.1
20260504034143 68 323 1.7 4.3 0.00 0.00 0.00 52 1009.0
20260504033122 69 345 0.9 4.3 0.00 0.00 0.00 51 1008.9
20260504032122 70 359 0.0 0.0 0.00 0.00 0.00 50 1009.0
20260504031122 71 349 1.7 5.2 0.00 0.00 0.00 48 1008.9
20260504030122 71 344 1.7 4.3 0.00 0.00 0.00 47 1009.0
20260504025143 72 307 0.9 2.6 0.00 0.00 0.00 45 1009.1
20260504024122 72 317 1.7 5.2 0.00 0.00 0.00 45 1009.1
20260504023122 73 348 2.6 7.0 0.00 0.00 0.00 43 1009.2
20260504022122 75 328 1.7 7.0 0.00 0.00 0.00 40 1009.1
20260504021122 75 320 1.7 5.2 0.00 0.00 0.00 41 1009.3
20260504020122 75 312 1.7 7.0 0.00 0.00 0.00 40 1009.4
20260504015123 74 331 1.7 8.7 0.00 0.00 0.00 41 1009.4
20260504014122 77 329 3.5 12.2 0.00 0.00 0.00 38 1009.6
20260504013143 78 306 2.6 11.3 0.00 0.00 0.00 32 1009.7
20260504012122 77 307 4.3 18.2 0.00 0.00 0.00 34 1009.9
20260504011123 77 314 3.5 11.3 0.00 0.00 0.00 36 1009.9
20260504010122 77 321 2.6 9.6 0.00 0.00 0.00 38 1010.0
20260504005122 78 317 3.5 16.5 0.00 0.00 0.00 35 1010.2
20260504004122 78 314 4.3 15.6 0.00 0.00 0.00 35 1010.3
20260504003123 78 342 1.7 7.0 0.00 0.00 0.00 39 1010.4
20260504002123 77 347 2.6 8.7 0.00 0.00 0.00 39 1010.5
20260504001143 77 327 2.6 9.6 0.00 0.00 0.00 42 1010.6
20260504000122 76 339 2.6 9.6 0.00 0.00 0.00 44 1010.7
20260503235122 76 327 3.5 11.3 0.00 0.00 0.00 44 1010.8
20260503234122 75 320 4.3 12.2 0.00 0.00 0.00 44 1011.0
20260503233143 76 315 4.3 13.9 0.00 0.00 0.00 41 1011.0
20260503232122 78 332 4.3 13.9 0.00 0.00 0.00 38 1011.2
20260503231144 78 319 5.2 15.6 0.00 0.00 0.00 37 1011.4
20260503230122 79 344 3.5 12.2 0.00 0.00 0.00 40 1011.5
20260503225122 78 326 2.6 11.3 0.00 0.00 0.00 39 1011.8
20260503224122 77 317 4.3 13.9 0.00 0.00 0.00 38 1011.8
20260503223143 78 321 4.3 15.6 0.00 0.00 0.00 40 1012.0
20260503222122 77 333 2.6 11.3 0.00 0.00 0.00 45 1012.0
20260503221123 75 353 3.5 11.3 0.00 0.00 0.00 47 1012.2
20260503220122 75 355 4.3 12.2 0.00 0.00 0.00 48 1012.4
20260503215122 75 344 3.5 11.3 0.00 0.00 0.00 49 1012.4
20260503214122 77 353 3.5 11.3 0.00 0.00 0.00 47 1012.5
20260503213123 76 349 2.6 11.3 0.00 0.00 0.00 49 1012.6
20260503212122 75 351 4.3 13.9 0.00 0.00 0.00 47 1012.8
20260503211123 74 349 5.2 13.9 0.00 0.00 0.00 50 1012.9
20260503210122 73 347 5.2 18.2 0.00 0.00 0.00 51 1012.9
20260503205143 74 358 6.1 16.5 0.00 0.00 0.00 50 1013.1
20260503204122 74 356 5.2 13.9 0.00 0.00 0.00 51 1013.3
20260503203123 75 336 4.3 12.2 0.00 0.00 0.00 48 1013.3
20260503202122 73 327 3.5 12.2 0.00 0.00 0.00 50 1013.4
20260503201122 73 340 3.5 13.9 0.00 0.00 0.00 54 1013.6
20260503200122 72 352 3.5 12.2 0.00 0.00 0.00 57 1013.9
20260503195123 70 326 4.3 12.2 0.00 0.00 0.00 56 1014.0
20260503194122 70 309 6.1 16.5 0.00 0.00 0.00 52 1014.1
20260503193122 70 304 7.0 18.2 0.00 0.00 0.00 48 1014.2
20260503192122 70 311 5.2 13.9 0.00 0.00 0.00 48 1014.3
20260503191122 70 309 4.3 12.2 0.00 0.00 0.00 51 1014.4
20260503190122 69 310 4.3 13.9 0.00 0.00 0.00 54 1014.6
20260503185122 69 307 4.3 13.9 0.00 0.00 0.00 53 1014.6
20260503184122 69 313 4.3 11.3 0.00 0.00 0.00 54 1014.6
20260503183122 69 324 3.5 11.3 0.00 0.00 0.00 55 1014.8
20260503182144 68 323 4.3 12.2 0.00 0.00 0.00 55 1014.8
20260503181144 68 319 4.3 12.2 0.00 0.00 0.00 56 1014.8
20260503180122 66 310 6.1 16.5 0.00 0.00 0.00 57 1014.7
20260503175122 66 308 6.1 15.6 0.00 0.00 0.00 59 1014.9
20260503174122 68 347 3.5 13.9 0.00 0.00 0.00 56 1014.9